www.pogodaiklimat.ru

Погода и климат >> Архив погоды >> Беларусь >> Пинск


АРХИВ ПОГОДЫ в Пинске

Время (UTC), дата Ветер
(напр.,м/с)
 
Видим.   Явления Облачность Т
(С)
Тd
(С)
f
(%)
Тe
(С)
Тes
(С)
Комфортность P
(гПа)
Po
(гПа)
Тmin
(С)
Tmax
(С)
R
(мм)
R24
(мм)
S
(см)
18 12.09 ЮЗ 2 10 км 9/9 600 м
[Sc]
+19.3 +16.5 84 +22 +22 комфорт 1003.1 986.7 +25.3
21 12.09 СЗ 3 7000 м дымка {ливн. осадки} 9/9 600 м
[Sc]
+16.5 +15.1 91 +16 +16 тепло 1004.2 987.6
00 13.09 СЗ 3 9000 м дымка {ливн. осадки} 9/9 600 м
[Sc]
+15.1 +13.5 90 +14 +14 тепло 1004.9 988.2
03 13.09 СЗ 4 9000 м дымка 9/9 600 м
[Sc]
+14.8 +13.0 89 +14 +14 тепло 1006.0 989.3
06 13.09 СЗ 3 9000 м дымка 10/4 300 м
[St Ac trans]
+14.9 +13.0 88 +14 +14 тепло 1006.9 990.2 +14.5 0.3
09 13.09 СЗ 3 10 км 9/6 300 м
[St Ac trans Ci fib]
+17.4 +11.2 67 +17 +19 тепло 1008.1 991.5
12 13.09 З 4 10 км 8/4 600 м
[Sc Ac trans Ci fib]
+17.2 +11.0 67 +17 +19 по сезону 1008.5 991.9
15 13.09 З 3
{10}
10 км 6/0
[Ac trans Ci fib]
+18.7 +10.7 60 +19 +20 тепло 1008.0 991.5
18 13.09 ЮЗ 2 10 км 8/0
[Ac trans]
+14.7 +10.4 75 +14 +14 по сезону 1007.7 991.0 +19.8
21 13.09 ЮЗ 4 10 км 9/0
[Ac und]
+14.7 +10.3 75 +14 +14 тепло 1006.2 989.5
00 14.09 З 3 10 км 10/10 300 м
[Cb calv]
+14.3 +9.4 72 +13 +13 тепло 1005.5 988.8
03 14.09 З 2 10 км 10/0
[Ac trans Ci fib]
+12.7 +8.9 78 +12 +12 тепло 1005.3 988.5
06 14.09 ЮЗ 5 10 км 9/9 600 м
[Sc]
+15.3 +9.9 70 +14 +14 тепло 1004.0 987.4 +12.5
09 14.09 ЮЗ 4
{10}
10 км 9/9 600 м
[Sc]
+20.3 +13.0 63 +22 +23 комфорт 1004.2 987.9
12 14.09 ЮЗ 5-10
{11}
10 км 10/10 300 м
[St]
+23.0 +12.9 53 +26 +26 жарко 1003.7 987.6
15 14.09 ЮЗ 3
{10}
15 км 9/0
[Ac trans Ci fib]
+23.5 +13.3 53 +26 +26 жарко 1002.6 986.5
18 14.09 ЮЗ 3 10 км ясно +19.7 +12.2 62 +21 +21 комфорт 1002.3 986.0 +24.3
21 14.09 Ю 2 10 км 9/9 600 м
[Sc]
+17.4 +11.4 68 +18 +18 тепло 1002.6 986.1
00 15.09 С 4 10 км 9/9 300 м
[Sc]
+16.0 +11.7 76 +15 +15 тепло 1004.2 987.6
03 15.09 СЗ 4 7000 м слабый ливневой дождь 10/10 600 м
[Cb calv]
+12.7 +11.4 92 +11 +11 по сезону 1006.4 989.6
06 15.09 З 4 9000 м в посл. час ливневой дождь 10/10 300 м
[St]
+11.6 +9.8 89 +9 +9 по сезону 1008.2 991.3 +11.2 0.7
09 15.09 З 5
{10}
10 км 9/9 600 м
[Sc]
+15.2 +8.4 64 +14 +14 по сезону 1010.2 993.5
12 15.09 З 4
{11}
10 км 9/9 600 м
[Sc]
+15.9 +7.2 56 +15 +16 по сезону 1012.0 995.3
15 15.09 СЗ 3
{10}
10 км 9/9 600 м
[Sc]
+14.9 +7.0 59 +14 +14 по сезону 1013.7 996.9
18 15.09 ЮЗ 2 10 км 9/9 600 м
[Sc]
+13.3 +8.6 73 +13 +13 по сезону 1015.7 998.7 +16.4
21 15.09 ЮЗ 1 10 км 9/0
[Ac trans]
+9.9 +7.9 87 +9 +9 по сезону 1017.0 999.8
00 16.09 ЮЗ 1 6000 м дымка 6/0
[Ac trans]
+8.0 +7.0 93 +7 +7 по сезону 1017.5 1000.2
03 16.09 ЮЗ 1 6000 м дымка 6/0
[Ac trans Ci fib]
+7.8 +6.8 93 +7 +7 по сезону 1018.3 1000.9
06 16.09 Ю 1 9000 м дымка 9/9 600 м
[Sc]
+9.9 +7.9 87 +9 +10 по сезону 1018.7 1001.5 +7.0
09 16.09 ЮВ 2 12 км 8/8 1000 м
[Sc]
+16.6 +9.6 63 +17 +18 тепло 1018.6 1001.8
12 16.09 В 2 10 км 9/9 600 м
[Sc]
+14.7 +11.2 80 +14 +15 прохладно 1018.2 1001.3
15 16.09 В 3 9000 м слабый ливневой дождь 10/10 300 м
[Cb calv]
+13.4 +11.4 88 +12 +12 прохладно 1017.1 1000.1
18 16.09 В 2 9000 м в посл. час ливневой дождь 9/9 600 м
[Sc]
+13.0 +11.3 89 +12 +12 по сезону 1016.9 999.9 +17.3 2
21 16.09 В 2 9000 м дымка 9/9 600 м
[Sc]
+12.9 +10.5 85 +12 +12 по сезону 1015.7 998.7
00 17.09 В 2 8000 м дымка 6/0
[Ac trans]
+11.6 +10.2 91 +10 +10 по сезону 1014.4 997.3
03 17.09 В 1 7000 м дымка 9/0
[Ac und]
+11.1 +9.9 92 +11 +11 по сезону 1013.4 996.3
06 17.09 ЮЗ 1 10 км 10/6 1000 м
[Sc Ac trans]
+13.6 +10.7 83 +14 +14 тепло 1013.3 996.4 +10.2
09 17.09 ЮЗ 1 10 км 6/0
[Ac trans Ci fib]
+19.6 +13.8 69 +22 +29 комфорт 1012.5 996.0
12 17.09 СВ 1 9000 м слабый ливневой дождь 10/10 300 м
[Cb calv]
+18.3 +16.3 88 +20 +20 тепло 1011.7 995.1
15 17.09 В 2 6000 м слабый ливневой дождь 10/10 300 м
[Cb calv]
+16.7 +15.4 92 +17 +17 тепло 1009.8 993.2
18 17.09 В 2 7000 м дымка {ливн. осадки} 9/9 600 м
[Sc]
+17.0 +15.7 92 +17 +17 тепло 1007.0 990.4 +20.8 2
21 17.09 ЮЗ 3 6000 м слабый ливневой дождь 10/10 300 м
[Cb calv]
+16.8 +16.1 96 +17 +17 тепло 1006.0 989.4
00 18.09 ЮЗ 3 9000 м дымка {ливн. осадки} 3/0
[Ac trans]
+15.2 +13.4 89 +14 +14 тепло 1003.7 987.1
03 18.09 ЮЗ 4 9000 м дымка 9/9 600 м
[Sc]
+14.0 +11.6 85 +13 +13 тепло 1002.3 985.6
06 18.09 ЮЗ 6-11
{14}
10 км 10/10 300 м
[St]
+12.7 +8.7 77 +10 +10 по сезону 1004.9 988.1 +12.6 3
09 18.09 ЮЗ 6-11
{14}
10 км 10/10 300 м
[St]
+14.1 +8.8 70 +12 +12 по сезону 1006.5 989.7
12 18.09 ЮЗ 6-13
{15}
10 км 10/10 300 м
[St]
+16.4 +8.1 58 +15 +15 по сезону 1007.5 990.9
15 18.09 ЮЗ 6-14
{18}
10 км 10/10 300 м
[St]
+15.9 +7.4 57 +15 +15 по сезону 1009.5 992.8
18 18.09 З 6-10
{12}
10 км {ливн. осадки} 9/9 1000 м
[Sc]
+13.5 +8.9 74 +11 +11 по сезону 1012.6 995.7 +17.4 0.0
21 18.09 СЗ 4
{11}
10 км {ливн. осадки} 4/4 1000 м
[Sc]
+11.9 +7.9 76 +10 +10 по сезону 1014.5 997.5
00 19.09 З 2 9000 м {ливн. осадки} ясно +9.6 +8.1 90 +8 +8 по сезону 1016.0 998.8
03 19.09 З 2 6000 м дымка ясно +8.0 +7.2 95 +6 +6 прохладно 1017.2 999.9
06 19.09 З 1 9000 м дымка 3/0
[Ci fib]
+8.9 +7.2 89 +8 +10 по сезону 1018.0 1000.7 +6.5 0.1
09 19.09 СЗ 2 12 км 8/0
[Ci fib]
+15.8 +8.7 63 +16 +22 тепло 1018.6 1001.8
12 19.09 З 2 20 км 8/4 600 м
[Cu hum Ci fib]
+17.8 +8.2 53 +18 +22 тепло 1018.0 1001.3
15 19.09 ЮЗ 1 10 км 9/0
[Ac und]
+17.7 +6.9 49 +19 +19 тепло 1017.8 1001.1

 

Местоположение метеостанции Пинск (Брестская область, Беларусь): широта 52.12 долгота 26.06 высота над уровнем моря 142 м.

В архиве по умолчанию представлена погода в Пинске за последнюю неделю. Архивные данные за месяц целиком и за предыдущие месяцы, начиная с января 2011 года, Вы можете получить, выбрав интересующий диапазон дат из раскрывающегося списка и нажав кнопку "Ввод!".

Внимание! Время в таблицах - всемирное. Для получения местного времени необходимо прибавить поправку, которая в Пинске равна 3 ч.

Смотрите также архив погоды в соседних городах и на ближайших метеорологических станциях:

Погода в Полесской (Брестская область, Беларусь) (48 км)
Погода в Любешове (Волынская область, Украина) (74 км)
Погода в Ганцевичах (Брестская область, Беларусь) (75 км)
Погода в Ивацевичах (Брестская область, Беларусь) (80 км)
Погода в Маневичах (Волынская область, Украина) (100 км)
Погода в Сарнах (Ровенская область, Украина) (101 км)
Погода в Пружанах (Брестская область, Беларусь) (117 км)
Погода в Житковичах (Гомельская область, Беларусь) (124 км)
Погода в Свитязи (Волынская область, Украина) (127 км)
Погода в Ковеле (Волынская область, Украина) (138 км)

Пояснения к столбцам:

Ветер - указаны скорость ветра в м/с - средняя за 10 мин, порывы в срок и между сроками (в фигурных скобках) и направление, откуда дует ветер: С - северный, СВ - северо-восточный, В - восточный, ЮВ - юго-восточный, Ю - южный, ЮЗ - юго-западный, З - западный, СЗ - северо-западный.
Видимость - горизонтальная дальность видимости в метрах или километрах. При видимости от 1 до 10 км при отсутствии осадков обычно наблюдается дымка, при ухудшении видимости до 1 км и менее - туман. В сухую погоду видимость может ухудшаться дымом, пылью или мглою.
Явления - указаны атмосферные явления, наблюдавшиеся в срок или в последний час перед сроком; фигурными скобками обозначены явления, наблюдавшиеся между сроками (за 1-3 часа до срока); квадратными скобками обозначены град или гололедные отложения с указанием их диаметра в мм.
Облачность - указаны через наклонную черту общая и нижняя облачность в баллах и высота нижней границы облаков в метрах; квадратными скобками обозначены формы облаков: Ci - перистые, Cs - перисто-слоистые, Cc - перисто-кучевые, Ac - высококучевые, As - высокослоистые, Sc - слоисто-кучевые, Ns - слоисто-дождевые, Cu - кучевые, Cb - кучево-дождевые. Подробнее классификацию облаков см. в Атласе облаков (PDF).
T - Температура воздуха - температура, измеренная на высоте 2 м над землей.
Td - Температура точки росы - температура, при понижении до которой содержащийся в воздухе водяной пар достигнет насыщения.
f - Относительная влажность воздуха - влажноcть воздуха, измеренная на высоте 2 м над землей.
Te - Эффективная температура - температура, которую ощущает одетый по сезону человек в тени. Характеристика душности погоды. При расчете учитывается влияние влажности воздуха и скорости ветра на теплоощущения человека.
Tes - Эффективная температура на солнце - температура, которую ощущает человек, с поправкой на солнечный нагрев. Характеристика знойности погоды. Зависит от высоты солнца над горизонтом, облачности и скорости ветра. Ночью, в пасмурную погоду, а также при ветре 12 м/с и более поправка равна нулю.
P - Атмосферное давление - приведенное к уровню моря атмосферное давление.
Po - Атмосферное давление - измеренное на уровне метеостанции атмосферное давление.
Tmin - Минимальная температура - минимум температуры воздуха на высоте 2 м над землей.
Tmax - Максимальная температура - максимум температуры воздуха на высоте 2 м над землей.
R - Количество осадков - Количество выпавших осадков за период времени, мм. При наведении курсора мыши на число - период времени, за который выпало указанное количество осадков.
R24 - Количество осадков - Количество выпавших осадков за 24 часа, мм.
S - Снежный покров - Высота снежного покрова, см. При наведении курсора мыши на число - состояние снежного покрова и степень покрытия местности в баллах.